Location: Bad Salzschlirf
(50.3750°N, 9.3000°E)
Time: 06:06:51
(UTC+01:00)

ISS - Pass Details

Date: 22 February 2020
Orbit: 415 x 423 km, 51.6° (Epoch: 27 February)

Event Time Altitude Azimuth Distance (km) Brightness Sun altitude
Rises 06:41:20 0° 215° (SW) 2,356 -0.2 -7.2°
Reaches altitude 10° 06:43:38 10° 201° (SSW) 1,497 -1.1 -6.8°
Maximum altitude 06:46:27 25° 145° (SE) 898 -1.5 -6.4°
Drops below altitude 10° 06:49:17 10° 88° (E) 1,508 0.8 -5.9°
Sets 06:51:36 0° 75° (ENE) 2,377 1.5 -5.6°
